📊 Raw Sensor Data

Showing records 39851 to 39875 of 84,953 total

ID Distance (ft) Battery V Battery A Int Temp (°F) Int Humid (%) Ext Temp (°F) Solar V RSSI SNR Time Stamp
45115 15.0 3.87 -5 60 44 60 0.00 -71 7 07/02/2025 02:15 AM
45114 15.0 3.87 -5 60 44 61 0.00 -71 8 07/02/2025 02:00 AM
45113 15.0 3.92 -5 60 45 61 0.00 -70 8 07/02/2025 01:45 AM
45112 15.0 3.92 -5 61 45 61 0.00 -70 8 07/02/2025 01:30 AM
45111 15.0 3.92 -5 61 45 62 0.00 -73 8 07/02/2025 01:15 AM
45110 15.0 3.92 -5 61 45 62 0.00 -70 7 07/02/2025 01:00 AM
45109 15.0 3.90 -5 61 45 62 0.00 -71 7 07/02/2025 12:45 AM
45108 15.0 3.90 -5 62 46 62 0.00 -69 8 07/02/2025 12:30 AM
45107 15.0 3.90 -5 62 46 62 0.10 -70 8 07/02/2025 12:15 AM
45106 15.0 3.90 -5 63 46 63 0.10 -72 8 07/02/2025 12:00 AM
45105 15.0 3.75 -5 64 46 64 0.10 -72 8 07/01/2025 11:45 PM
45104 15.0 3.74 -5 64 46 64 0.00 -71 8 07/01/2025 11:30 PM
45103 15.0 3.74 -5 65 47 65 0.00 -72 8 07/01/2025 11:15 PM
45102 15.0 3.76 -5 66 47 66 0.00 -74 7 07/01/2025 11:00 PM
45101 15.0 3.90 -5 67 47 67 0.00 -72 8 07/01/2025 10:45 PM
45100 15.0 3.75 -5 68 47 68 0.00 -72 8 07/01/2025 10:30 PM
45099 15.0 3.90 -5 68 48 69 0.00 -75 7 07/01/2025 10:15 PM
45098 15.0 3.74 -5 69 48 69 0.00 -74 8 07/01/2025 10:00 PM
45097 15.0 3.75 -5 70 49 70 0.10 -75 8 07/01/2025 09:45 PM
45096 15.0 3.78 -5 70 50 70 0.10 -75 8 07/01/2025 09:30 PM
45095 15.1 3.77 -5 71 51 71 0.00 -75 8 07/01/2025 09:15 PM
45094 15.0 3.91 -5 72 53 71 0.00 -74 8 07/01/2025 09:00 PM
45093 15.0 3.83 -5 74 55 72 1.20 -74 7 07/01/2025 08:45 PM
45092 15.1 3.92 -10 77 57 73 4.20 -73 8 07/01/2025 08:30 PM
45091 15.1 3.89 0 82 56 77 4.60 -73 8 07/01/2025 08:15 PM